This is the latest recevied weather packets stored in our database for station/object SP5MRF. If no packets are shown the sender has not sent any weather packets the latest 10 day(s).
| Time | Temp. | Humidity | Pressure | Rain* | Wind** | Luminosity | Snow |
|---|---|---|---|---|---|---|---|
| 1777751402 | 13.89° C | 42% | 1014.9 hPa | 0 mm | - | - | - |
| 1777750921 | 14.44° C | 41% | 1015 hPa | 0 mm | - | - | - |
| 1777750442 | 14.44° C | 41% | 1015.2 hPa | 0 mm | - | - | - |
| 1777749961 | 15° C | 40% | 1015.1 hPa | 0 mm | - | - | - |
| 1777749481 | 15.56° C | 40% | 1015.2 hPa | 0 mm | - | - | - |
| 1777749003 | 15.56° C | 40% | 1015 hPa | 0 mm | - | - | - |
| 1777748522 | 15.56° C | 39% | 1015.1 hPa | 0 mm | - | - | - |
| 1777748042 | 16.11° C | 39% | 1015.2 hPa | 0 mm | - | - | - |
| 1777747562 | 16.67° C | 38% | 1015 hPa | 0 mm | - | - | - |
| 1777747082 | 17.22° C | 35% | 1014.9 hPa | 0 mm | - | - | - |
| 1777746602 | 17.78° C | 35% | 1014.9 hPa | 0 mm | - | - | - |
| 1777746122 | 18.33° C | 34% | 1014.9 hPa | 0 mm | - | - | - |
| 1777745642 | 18.89° C | 34% | 1014.8 hPa | 0 mm | - | - | - |
| 1777745162 | 19.44° C | 33% | 1014.7 hPa | 0 mm | - | - | - |
| 1777744682 | 20° C | 33% | 1014.9 hPa | 0 mm | - | - | - |
| 1777744202 | 20.56° C | 33% | 1014.9 hPa | 0 mm | - | - | - |
| 1777743722 | 21.11° C | 33% | 1014.9 hPa | 0 mm | - | - | - |
| 1777743242 | 21.11° C | 32% | 1015 hPa | 0 mm | - | - | - |
| 1777742762 | 21.67° C | 32% | 1015 hPa | 0 mm | - | - | - |
| 1777742282 | 22.22° C | 31% | 1015 hPa | 0 mm | - | - | - |
| 1777741804 | 22.22° C | 31% | 1015 hPa | 0 mm | - | - | - |
| 1777741322 | 22.78° C | 31% | 1014.8 hPa | 0 mm | - | - | - |
| 1777740842 | 22.78° C | 30% | 1014.9 hPa | 0 mm | - | - | - |
| 1777740362 | 22.78° C | 30% | 1014.9 hPa | 0 mm | - | - | - |
| 1777739882 | 23.33° C | 30% | 1015 hPa | 0 mm | - | - | - |
* Rain latest hour (hover to see other rain measurements)
** Current wind speed in m/s (hover to see current wind gust speed)